DateTimeUTC,F1_A11,F1_S11,BsB_S11,BsG_S11,BsR_S11,BbsB_S11,BbsG_S11,BbsR_S11,BaB_A11,BaG_A11,BaR_A11,Tu_S11,T_S11,Uu_S11,U_S11,P_S11,T1_A11
2021-02-20T15:00:00Z,00000200,21000000,,,,,,,-000.26,0000.09,-000.18,17.9,25.2,,00.0,0631.9,31.1
2021-02-20T15:01:00Z,00000200,21000000,,,,,,,0000.57,0000.38,0000.39,17.9,25.2,,00.0,0631.9,31.1
2021-02-20T15:02:00Z,00000200,21000000,,,,,,,-000.16,-000.14,-000.21,17.9,25.2,,00.0,0631.9,31.1
2021-02-20T15:03:00Z,00000200,61000000,,,,,,,0000.39,0000.51,0000.43,17.9,25.2,,00.0,0631.9,31.1
2021-02-20T15:04:00Z,00000200,41000000,0000.45,0000.22,-000.10,0000.12,0000.10,-000.24,-000.78,-000.42,-000.53,18.3,25.1,00.0,00.0,0632.7,31.1
2021-02-20T15:05:00Z,00000200,01000000,0000.49,0000.26,-000.07,0000.27,0000.08,0000.03,0000.26,-000.35,-000.02,18.4,25.1,,00.0,0632.8,31.1
2021-02-20T15:06:00Z,00000200,01000000,0000.43,0000.36,-000.03,0000.11,-000.02,-000.35,0000.20,0000.17,0000.30,18.4,25.1,,00.0,0632.8,31.1
2021-02-20T15:07:00Z,00000200,01000000,0000.12,0000.07,0000.12,-000.03,-000.00,-000.03,-000.50,-000.01,-000.29,18.4,25.1,00.0,00.0,0632.8,31.1
2021-02-20T15:08:00Z,00000200,01000000,0000.56,0000.15,0000.20,0000.17,0000.11,-000.05,0000.11,-000.28,0000.23,18.4,25.1,,00.0,0632.8,31.1
2021-02-20T15:09:00Z,00000200,01000000,0000.56,0000.14,0000.26,0000.10,-000.27,0000.03,0000.25,0000.18,-000.21,18.3,25.1,00.0,00.0,0632.9,31.1
2021-02-20T15:10:00Z,00000200,01000000,0000.56,0000.26,-000.24,0000.25,0000.21,-000.15,0000.22,-000.03,-000.03,18.3,25.1,,00.0,0632.9,31.1
2021-02-20T15:11:00Z,00000200,01000000,0000.17,0000.04,-000.01,0000.45,-000.08,-000.08,-000.29,-000.17,-000.08,18.3,25.1,,00.0,0632.9,31.1
2021-02-20T15:12:00Z,00000200,01000000,0000.27,0000.31,-000.05,0000.19,-000.08,-000.29,0000.16,0000.61,0000.06,18.2,25.0,,00.0,0633.0,31.1
2021-02-20T15:13:00Z,00000200,01000000,0000.23,0000.47,-000.22,0000.04,-000.10,-000.12,-000.25,-000.41,0000.13,18.2,25.0,00.0,00.0,0633.0,31.1
2021-02-20T15:14:00Z,00000200,01000000,0000.34,0000.45,-000.06,0000.13,-000.14,-000.11,0000.06,0000.25,0000.01,18.2,25.0,,00.0,0633.0,31.1
2021-02-20T15:15:00Z,00000200,01000000,0000.09,0000.41,0000.00,-000.16,-000.12,-000.04,-000.16,-000.31,-000.20,18.2,25.0,,00.0,0633.0,31.1
2021-02-20T15:16:00Z,00000200,01000000,0000.39,0000.24,0000.11,0000.10,0000.19,-000.15,0000.41,0000.17,0000.39,18.2,25.0,,00.0,0633.0,31.1
2021-02-20T15:17:00Z,00000200,01000000,0000.33,0000.47,0000.14,-000.11,0000.06,-000.10,-000.21,-000.33,-000.11,18.1,25.0,,00.0,0633.0,31.1
2021-02-20T15:18:00Z,00000200,01000000,0000.80,0000.22,-000.07,0000.31,0000.09,-000.17,0000.06,0000.30,-000.56,18.1,25.0,,00.0,0633.0,31.1
2021-02-20T15:19:00Z,00000200,01000000,0000.18,0000.16,0000.01,0000.36,-000.01,0000.05,0000.16,0000.23,0000.53,18.1,25.0,,00.0,0632.9,31.0
2021-02-20T15:20:00Z,00000200,01000000,0000.76,0000.08,-000.17,-000.13,0000.14,-000.14,-000.67,-000.84,-000.45,18.1,24.9,,00.0,0632.9,31.0
2021-02-20T15:21:00Z,00000200,01000000,0000.30,0000.06,0000.04,0000.59,0000.14,0000.16,-000.05,-000.09,-000.12,18.0,24.9,,00.0,0632.8,31.0
2021-02-20T15:22:00Z,00000200,01000000,0000.91,-000.09,0000.05,0000.22,0000.19,0000.03,0000.43,0000.06,0000.22,18.0,24.9,,00.0,0632.9,31.0
2021-02-20T15:23:00Z,00000200,01000000,-000.29,0000.32,-000.10,0000.56,0000.12,-000.08,0000.08,0000.40,0000.13,17.9,24.8,,00.0,0632.9,31.0
2021-02-20T15:24:00Z,00000200,01000000,-000.40,0000.21,0000.02,-000.32,0000.08,-000.35,0000.20,0000.01,0000.13,17.9,24.8,,00.0,0632.9,31.0
2021-02-20T15:25:00Z,00000200,01000000,0000.15,-000.26,-000.08,0000.41,-000.03,-000.26,-000.24,-000.24,-000.09,17.9,24.8,,00.0,0632.8,31.0
2021-02-20T15:26:00Z,00000200,01000000,0000.28,0000.09,-000.07,0000.16,0000.08,-000.10,-000.06,0000.31,0000.10,17.8,24.8,,00.0,0632.9,31.0
2021-02-20T15:27:00Z,00000200,01000000,0000.28,-000.18,0000.14,-000.06,0000.09,-000.02,0000.10,-000.33,0000.34,17.8,24.7,,00.0,0632.9,31.0
2021-02-20T15:28:00Z,00000200,01000000,0000.58,0000.04,-000.01,-000.05,-000.07,0000.04,0000.03,0000.12,-000.40,17.8,24.7,00.0,00.0,0632.9,31.0
2021-02-20T15:29:00Z,00000200,01000000,0000.29,0000.17,0000.19,0000.13,-000.23,-000.07,-000.19,0000.07,-000.01,17.8,24.7,,00.0,0632.9,31.0
2021-02-20T15:30:00Z,00000200,01000000,0000.46,0000.02,-000.18,-000.12,-000.17,-000.10,0000.51,0000.45,0000.44,17.8,24.7,00.0,00.0,0633.0,31.1
2021-02-20T15:31:00Z,00000200,01000000,-000.08,0000.22,-000.05,0000.37,-000.09,0000.08,-000.48,-000.43,-000.36,17.8,24.7,,00.0,0633.0,31.0
2021-02-20T15:32:00Z,00000200,01000000,0000.71,0000.38,-000.06,0000.46,0000.01,-000.02,0000.33,0000.31,-000.03,17.8,24.7,,00.0,0633.0,31.1
2021-02-20T15:33:00Z,00000200,01000000,0000.48,0000.10,-000.16,0000.39,-000.03,-000.10,-000.02,-000.04,0000.10,17.8,24.6,,00.0,0633.0,31.0
2021-02-20T15:34:00Z,00000200,01000000,0000.46,0000.10,0000.06,0000.19,0000.14,-000.23,-000.03,0000.07,0000.22,17.8,24.7,,00.0,0633.0,31.0
2021-02-20T15:35:00Z,00000200,01000000,0000.08,0000.05,0000.05,-000.33,0000.25,0000.07,0000.02,0000.07,-000.17,17.8,24.6,00.0,00.0,0633.0,31.0
2021-02-20T15:36:00Z,00000200,01000000,0000.50,-000.10,0000.10,-000.03,0000.07,-000.06,-000.24,-000.27,-000.03,17.8,24.6,00.0,00.0,0633.1,31.0
2021-02-20T15:37:00Z,00000200,01000000,0000.27,0000.23,0000.02,0000.36,-000.03,-000.27,0000.38,0000.30,-000.01,17.8,24.6,,00.0,0633.1,31.1
2021-02-20T15:38:00Z,00000200,01000000,0000.36,0000.21,-000.07,0000.37,0000.18,-000.00,-000.25,-000.09,0000.12,17.8,24.6,00.0,00.0,0633.1,31.0
2021-02-20T15:39:00Z,00000200,01000000,0000.65,0000.32,-000.02,-000.14,0000.16,-000.02,0000.09,0000.14,-000.11,17.8,24.6,,00.0,0633.1,31.0
2021-02-20T15:40:00Z,00000200,01000000,0000.71,0000.10,0000.13,0000.35,0000.09,-000.22,-000.15,-000.33,-000.31,17.8,24.6,,00.0,0633.1,31.0
2021-02-20T15:41:00Z,00000200,01000000,0000.03,0000.22,-000.06,0000.24,-000.12,-000.35,-000.01,0000.10,0000.28,17.8,24.6,,00.0,0633.1,31.0
2021-02-20T15:42:00Z,00000200,01000000,0000.08,0000.32,0000.11,-000.07,0000.03,-000.06,0000.19,0000.04,-000.13,17.8,24.6,,00.0,0633.1,31.0
2021-02-20T15:43:00Z,00000200,01000000,0000.12,-000.18,0000.14,0000.12,-000.13,0000.08,-000.30,-000.54,0000.08,17.8,24.6,00.0,00.0,0633.1,31.0
2021-02-20T15:44:00Z,00000200,01000000,0000.87,0000.35,0000.21,-000.03,0000.14,0000.02,-000.17,0000.29,-000.13,17.7,24.6,,00.0,0633.1,31.0
2021-02-20T15:45:00Z,00000200,01000000,0000.19,0000.09,0000.07,-000.76,0000.03,0000.24,-000.18,-000.04,-000.18,17.8,24.6,,00.0,0633.1,31.0
2021-02-20T15:46:00Z,00000200,01000000,0000.36,0000.16,-000.17,-000.15,0000.16,0000.03,0000.18,-000.16,0000.28,17.7,24.6,,00.0,0633.1,31.0
2021-02-20T15:47:00Z,00000200,01000000,-000.05,0000.12,0000.22,0000.29,-000.05,-000.05,0000.01,0000.04,-000.32,17.7,24.6,,00.0,0633.1,31.0
2021-02-20T15:48:00Z,00000200,01000000,0000.32,-000.07,-000.05,0000.04,-000.03,-000.15,-000.10,0000.40,0000.04,17.7,24.5,,00.0,0633.1,31.0
2021-02-20T15:49:00Z,00000200,01000000,0000.47,0000.09,-000.07,0000.59,-000.10,-000.10,-000.17,-000.28,-000.08,17.7,24.5,,00.0,0633.1,31.0
2021-02-20T15:50:00Z,00000200,01000000,0000.38,0000.33,-000.16,-000.27,0000.09,-000.11,0000.12,-000.38,0000.20,17.7,24.5,,00.0,0633.1,31.0
2021-02-20T15:51:00Z,00000200,01000000,0000.40,0000.29,-000.09,-000.11,-000.17,0000.02,0000.03,-000.09,-000.07,17.7,24.5,,00.0,0633.1,31.0
2021-02-20T15:52:00Z,00000200,01000000,0000.31,-000.04,0000.07,-000.18,0000.02,-000.07,0000.08,0000.39,-000.04,17.7,24.5,,00.0,0633.1,31.0
2021-02-20T15:53:00Z,00000200,01000000,0000.25,-000.01,0000.01,0000.43,-000.06,0000.06,-000.15,-000.20,0000.01,17.7,24.5,,00.0,0633.2,31.0
2021-02-20T15:54:00Z,00000200,01000000,-000.19,0000.14,0000.01,0000.51,-000.16,-000.03,-000.24,-000.31,-000.47,17.7,24.5,,00.0,0633.2,31.0
2021-02-20T15:55:00Z,00000200,01000000,0000.35,0000.08,-000.18,0000.29,0000.22,0000.03,-000.02,0000.33,0000.32,17.7,24.5,,00.0,0633.2,31.0
2021-02-20T15:56:00Z,00000200,01000000,-000.05,0000.18,0000.11,-000.06,-000.13,-000.37,-000.06,0000.08,0000.09,17.7,24.5,,00.0,0633.2,31.0
2021-02-20T15:57:00Z,00000200,41000000,,,,,,,0000.66,0000.11,0000.27,17.7,24.5,,00.0,0633.2,31.0
2021-02-20T15:58:00Z,00000200,61000000,,,,,,,-000.43,-000.27,-000.54,17.3,24.6,,00.0,0632.3,31.0
2021-02-20T15:59:00Z,00000200,21000000,,,,,,,-000.03,0000.05,0000.38,17.3,24.7,,00.0,0632.3,31.0
